This is the latest recevied weather packets stored in our database for station/object DG8SF-13. If no packets are shown the sender has not sent any weather packets the latest 1 day(s).
| Time | Temp. | Humidity | Pressure | Rain* | Wind** | Luminosity | Snow |
|---|---|---|---|---|---|---|---|
| 1778065168 | 16.67° C | 61% | 1005.1 hPa | 0 mm | - | - | - |
| 1778063610 | 16.67° C | 62% | 1005.6 hPa | 0 mm | - | - | - |
| 1778062985 | 17.78° C | 60% | 1005.7 hPa | 0 mm | - | - | - |
| 1778062675 | 17.78° C | 61% | 1005.8 hPa | 0 mm | - | - | - |
| 1778061738 | 17.22° C | 61% | 1005.9 hPa | 0 mm | - | - | - |
| 1778060801 | 16.67° C | 62% | 1005.9 hPa | 0 mm | - | - | - |
| 1778060490 | 17.78° C | 58% | 1005.9 hPa | 0 mm | - | - | - |
| 1778059866 | 18.33° C | 60% | 1005.8 hPa | 0 mm | - | - | - |
| 1778059243 | 17.22° C | 58% | 1005.9 hPa | 0 mm | - | - | - |
| 1778058930 | 17.78° C | 61% | 1005.9 hPa | 0 mm | - | - | - |
| 1778057995 | 16.67° C | 63% | 1005.9 hPa | 0 mm | - | - | - |
| 1778057681 | 16.11° C | 69% | 1005.9 hPa | 0 mm | - | - | - |
| 1778057370 | 15.56° C | 71% | 1006 hPa | 0 mm | - | - | - |
| 1778057057 | 15° C | 72% | 1005.8 hPa | 0 mm | - | - | - |
| 1778056433 | 15° C | 72% | 1005.9 hPa | 0 mm | - | - | - |
| 1778055498 | 14.44° C | 78% | 1006 hPa | 0 mm | - | - | - |
| 1778055186 | 13.89° C | 79% | 1005.9 hPa | 0 mm | - | - | - |
| 1778054872 | 13.33° C | 80% | 1006 hPa | 0 mm | - | - | - |
| 1778054562 | 13.33° C | 81% | 1006.1 hPa | 0 mm | - | - | - |
| 1778053939 | 12.78° C | 82% | 1006.3 hPa | 0 mm | - | - | - |
| 1778053625 | 12.78° C | 82% | 1006.3 hPa | 0 mm | - | - | - |
| 1778053314 | 12.78° C | 81% | 1006.3 hPa | 0 mm | - | - | - |
| 1778053002 | 12.78° C | 82% | 1006.5 hPa | 0 mm | - | - | - |
| 1778052694 | 12.78° C | 82% | 1006.5 hPa | 0 mm | - | - | - |
| 1778052377 | 12.78° C | 83% | 1006.6 hPa | 0 mm | - | - | - |
* Rain latest hour (hover to see other rain measurements)
** Current wind speed in m/s (hover to see current wind gust speed)